Regional Weather Roundup
Issued by NWS Mobile, AL

Home | Current Version | Previous Version | Text Only | Print | Product List | Glossary On
Versions: 1 2 3 4 5 6 7 8 9 10 11 12 13 14 15 16 17 18 19 20 21 22 23 24 25 26 27 28 29 30 31 32 33 34 35
000
ASUS44 KMOB 222310
RWRMOB
REGIONAL WEATHER ROUNDUP
NATIONAL WEATHER SERVICE MOBILE AL
600 PM CDT WED OCT 22 2014

NOTE: "FAIR" INDICATES FEW OR NO CLOUDS BELOW 12,000 FEET WITH NO
      SIGNIFICANT WEATHER AND/OR OBSTRUCTIONS TO VISIBILITY.

  * THESE STATIONS ARE PART OF THE UNIVERSITY OF SOUTH ALABAMA
    MESONET AND ARE NOT UNDER NWS OR FAA QUALITY CONTROL.

ALZ061>064-230000-
COASTAL ALABAMA

CITY           SKY/WX    TMP DP  RH WIND       PRES   REMARKS
MOBILE REG APT CLEAR     71  50  47 N9        30.04R
BROOKLEY FIELD CLEAR     73  51  46 N9        30.04R
USA CAMPUS*      N/A     70  52  52 N2        30.03R
DOG RIVER*     NOT AVBL


CITY           SKY/WX    TMP DP  RH WIND       PRES   REMARKS
MOUNT VERNON*    N/A     64  52  63 CALM      30.04S
SARALAND*      NOT AVBL
BAY MINETTE*   NOT AVBL
LOXLEY*          N/A     70  48  46 N7        30.03R
ROBERTSDALE*     N/A     70  50  49 N5        30.02R
FAIRHOPE*        N/A     72  48  43 N3        30.02R
ELBERTA*         N/A     73  50  43 VRB5      30.01R
FOLEY*           N/A     68  43  40 CALM      30.01R
GRAND BAY*       N/A     73  50  43 NE2       30.01R
DAUPHIN ISLND* NOT AVBL
BON SCOUR NWR* NOT AVBL
GULF SHORES    CLEAR     72  53  50 NE3       30.01R

$$

ALZ051>060-230000-
INTERIOR SOUTHWEST AND SOUTH CENTRAL ALABAMA

CITY           SKY/WX    TMP DP  RH WIND       PRES   REMARKS
GREENVILLE     CLEAR     68  44  42 N3        30.06R
EVERGREEN      CLEAR     69  44  40 N6        30.06R
CASTLEBERRY*   NOT AVBL
ATMORE*          N/A     68  46  45 VRB7      30.05R
DIXIE*           N/A     64  48  55 CALM      30.02R
ANDALUSIA/OPP  CLEAR     72  43  35 NE6       30.05R
ANDALUSIA*       N/A     68  43  40 N5        30.05R
FLORALA APT    CLEAR     66  47  50 N5        30.05R
FLORALA*         N/A     68  43  40 CALM      30.01R

$$

FLZ001>006-230000-
WESTERN FLORIDA PANHANDLE

CITY           SKY/WX    TMP DP  RH WIND       PRES   REMARKS
PENSACOLA      CLEAR     73  48  41 N7        30.01R
NAS PENSACOLA  CLEAR     72  49  44 N7        30.01R
MILTON         CLEAR     70  46  42 N3        30.02S
WHTNG S FIELD  CLEAR     72  46  39 N7        30.02R


CITY           SKY/WX    TMP DP  RH WIND       PRES   REMARKS
WALNUT HILL*   NOT AVBL
JAY*             N/A     70  46  43 VRB2      30.04R
DUKE FIELD     PTCLDY    71  46  41 N7        30.01S
CRESTVIEW      CLEAR     69  47  45 N6        30.03S
VALPARAISO     PTCLDY    73  46  37 N8        30.01R
DESTIN         CLEAR     74  49  41 N9        30.00R

$$

MSZ076-079-230000-
INTERIOR SOUTHEAST MISSISSIPPI

CITY           SKY/WX    TMP DP  RH WIND       PRES   REMARKS
LEAKESVILLE*     N/A     72  43  35 N5        30.05S
AGRICOLA*      NOT AVBL

$$

MARINE OBSERVATIONS

STATION/POSITION TIME  TEMP    WIND        PRES    WAVE
                       AIR SEA DIR/SP/G            HT/PER
                 (UTC) (F)     (DEG/KT/KT) (MB)    (FT/S)
PASCAGOULA       2300   76      30/  8/ 12 1016.4R
PETIT BOIS ISLND 2300   75      40/ 10/ 13 1016.7R
GRAND BAY        2200   76      30/  8     1017.0S
KATRINA CUT      2200   76      30/ 11     1016.6S
CEDAR POINT      2200   75      20/ 10     1016.6S
E DAUPHIN ISLAND 2200   74     360/ 15/ 16 1016.3S
MIDDLE BAY LIGHT 2200   75     360/ 18     1015.6F
USCG MOBILE BAY  2300   74 75   20/  9/ 12 1015.6R
STATE DOCKS      2300   74 75              1016.6R
MEAHER PARK      2200   74     360/  6     1016.3R
WEEKS BAY        2200   77                   N/A
FORT MORGAN      2300   74      10/ 19/ 20 1015.7R
12 S ORANGE BCH  2300   76 79   20/ 14/ 16 1015.6S   2/ 5
PENSACOLA BAY    2300   76 74   20/  5/ 10 1016.4R
64 S DAUPHIN ISL 2229   74 80   40/ 12/ 16 1016.7R   3/ 5
67 S FORT MORGAN 2200   76                 1015.6R

$$

SELECTED LOCATIONS ACROSS THE REGION

CITY           SKY/WX    TMP DP  RH WIND       PRES   REMARKS
NEW ORLEANS    CLEAR     76  51  41 NE7       30.02S
GULFPORT       CLEAR     75  51  43 NE7       30.02R
PASCAGOULA AP  CLEAR     72  51  47 NE5       30.03R
PASCAGOULA*      N/A     73  48  40 CALM      30.02R
HATTIESBURG    CLEAR     73  49  42 N5        30.07R
LAUREL         CLEAR     70  48  46 N5        30.09S
MERIDIAN       CLEAR     66  43  43 N9        30.10R
JACKSON        CLEAR     70  46  42 NE7       30.09S
MONTGOMERY     CLEAR     68  44  42 N6        30.08R
TROY           CLEAR     65  43  44 N6        30.07R
KINSTON*       NOT AVBL
GENEVA*          N/A     68  41  37 NE5       30.05R
ASHFORD*         N/A     68  43  40 N5        30.05R
DOTHAN         CLEAR     66  44  45 NE6       30.07R
PANAMA CITY    CLEAR     70  48  45 N5        29.99R

$$




USA.gov is the U.S. government's official web portal to all federal, state and local government web resources and services.